Temperature
20 20 20 20 24 25 23 23 24 23 23 22 21 22 22 21 21 20 17 17 17 17 16 17 17 17 17 17 17 17 17 17 17 17 17 17 17 17 17 17 17 17 17 17 17 17 17 17 17
20 20 20 22 25 24 23 23 23 23 22 21 21 21 21 20 19 18 17 17 16 16 16 16 17 17 17 17 17 17 17 17 17 17 17 17 17 17 17 17 17 17 17 17 17 17 17 17 17
20 20 22 24 24 24 23 23 23 22 21 22 21 21 21 19 18 18 17 17 16 16 16 17 17 17 17 17 17 17 17 17 17 17 17 17 17 17 17 17 17 17 17 17 17 17 17 17 17
20 21 23 25 23 23 23 23 23 23 22 22 22 21 19 18 18 17 17 17 17 16 16 16 17 17 16 16 16 16 16 16 16 16 16 16 16 16 16 16 16 16 16 17 17 17 17 17 17
20 23 24 24 23 23 24 23 23 23 23 22 22 21 19 17 17 17 17 17 17 16 16 16 17 17 16 16 16 16 16 16 16 16 16 16 16 16 16 16 16 16 16 16 16 16 17 17 17
22 24 24 23 23 23 23 23 23 23 23 22 22 21 19 17 17 17 17 16 16 16 16 16 16 16 16 16 16 16 16 16 16 16 16 16 16 16 16 16 16 16 16 16 16 16 16 16 16
23 24 24 24 23 23 23 23 23 23 23 22 21 21 19 18 17 17 17 17 16 16 16 16 16 16 16 16 16 16 16 16 16 16 16 16 16 16 16 16 16 16 16 16 16 16 16 16 16
22 25 24 24 23 23 23 22 22 22 22 21 21 22 20 18 17 17 17 17 17 17 16 16 16 16 16 16 16 16 16 16 16 16 16 16 16 16 16 16 16 16 16 16 16 16 16 16 16
23 25 24 23 23 23 23 23 22 21 21 21 20 20 19 18 17 17 17 17 17 17 17 16 16 16 16 16 16 16 16 16 15 15 16 15 15 15 15 16 16 16 16 16 16 16 16 16 16
24 24 23 24 24 24 23 23 22 22 22 22 21 19 18 18 18 18 18 18 18 17 17 17 17 16 16 16 16 16 15 15 15 15 15 15 15 15 15 16 16 16 16 16 16 16 16 16 16
24 24 24 23 23 23 23 23 22 23 23 22 22 20 19 18 18 18 18 18 18 17 17 17 17 16 16 16 16 16 16 15 15 15 15 15 15 15 15 15 15 15 15 15 15 15 16 16 16
24 24 24 23 23 23 23 23 23 23 23 22 21 20 19 19 19 19 19 18 18 17 17 17 17 17 16 16 16 16 16 16 16 16 16 16 16 15 15 16 15 15 15 15 15 15 15 16 16
24 24 23 23 23 23 23 23 23 22 21 21 20 20 20 20 19 19 19 18 18 17 17 17 17 17 16 16 16 16 16 16 16 16 16 16 16 16 16 16 15 15 15 15 15 15 15 15 15
24 23 23 23 23 23 23 23 23 22 21 21 20 20 20 19 19 19 18 18 18 18 17 17 17 17 16 16 16 16 16 16 16 16 16 16 16 16 16 16 15 15 15 15 15 15 15 15 15
23 24 24 24 23 23 23 24 24 22 21 21 21 20 20 20 19 19 19 18 18 18 18 17 17 17 16 16 16 16 16 16 16 16 16 16 15 15 15 16 15 15 15 15 15 15 15 15 15
24 24 24 24 24 23 24 23 24 22 22 22 21 21 20 19 19 19 19 18 18 18 18 17 17 17 16 16 16 16 16 16 16 16 15 16 15 15 15 15 15 15 15 15 15 15 15 15 15
24 24 24 24 24 24 24 23 24 22 22 22 22 21 21 20 19 19 19 18 18 18 18 17 17 17 16 16 16 16 16 16 16 16 15 15 15 15 15 15 15 15 15 15 15 15 15 15 15
24 24 24 24 24 24 23 24 24 22 22 22 22 21 21 21 20 19 19 18 18 18 18 17 17 17 16 16 16 16 16 16 16 15 15 15 15 15 15 15 15 15 15 15 15 15 15 15 14
24 24 24 24 24 23 23 24 24 23 22 22 22 22 21 21 20 19 18 18 18 18 18 17 17 17 16 16 16 16 16 16 15 15 15 15 15 15 15 15 15 15 15 15 15 15 15 14 14
24 24 24 24 24 24 24 24 24 24 23 22 22 22 21 21 20 19 19 18 18 18 18 18 17 17 16 16 16 16 16 15 15 15 15 15 15 15 15 15 15 15 15 15 15 15 14 14 14
23 23 23 23 23 24 24 24 24 24 23 22 22 22 21 21 20 19 19 19 18 18 18 17 17 17 16 16 16 16 16 15 15 15 15 15 15 15 15 15 15 15 15 15 14 14 14 14 14
23 23 23 23 23 24 23 23 24 24 24 23 22 22 21 21 20 20 19 19 18 18 18 18 17 17 16 16 16 16 15 15 15 15 15 15 15 15 15 15 15 15 14 14 14 14 14 14 14
23 23 23 23 23 23 24 24 24 24 24 24 23 22 21 21 20 19 19 18 18 18 18 17 17 17 16 16 16 15 15 15 15 15 15 15 15 15 15 15 15 15 14 14 14 14 14 14 14
23 23 23 23 23 23 23 23 23 24 24 24 24 22 21 20 20 19 19 18 18 18 18 17 17 17 16 16 16 15 15 15 15 15 15 15 15 15 15 15 15 15 14 14 14 14 14 14 14
23 23 23 23 23 23 23 23 24 24 24 24 23 22 21 20 20 19 18 18 18 18 18 17 17 17 16 16 16 15 15 15 15 15 15 15 15 15 15 14 14 14 14 14 14 14 14 14 14
23 24 23 23 23 23 23 23 24 24 23 22 22 22 21 20 19 19 18 18 18 18 18 17 17 17 16 16 16 15 15 15 15 15 15 15 15 15 14 14 14 14 14 14 14 14 14 14 14
23 23 24 23 23 23 24 24 24 24 23 23 22 21 21 20 19 19 18 18 18 18 18 17 17 17 16 16 16 16 15 15 15 15 15 15 15 15 14 14 14 14 14 14 14 14 14 14 14
23 23 23 23 22 22 23 23 24 23 23 23 22 21 20 20 19 19 18 18 18 18 18 17 17 17 16 16 16 16 15 15 15 15 15 15 15 15 15 14 14 14 14 14 14 14 14 14 14
22 22 23 23 23 23 23 23 24 23 23 23 22 21 20 20 19 18 18 18 18 17 17 17 17 17 16 16 16 16 16 15 15 15 15 15 15 15 15 14 14 14 14 14 14 14 14 14 14
22 22 23 22 22 22 23 23 24 23 23 22 22 21 20 19 19 18 18 18 17 17 17 17 17 16 16 16 16 16 16 15 15 15 15 15 15 15 15 15 15 15 14 14 14 14 14 14 14
Wind_Speed
4 3 2 2 2 4 7 6 5 5 5 6 6 5 6 7 6 5 4 4 4 4 5 7 8 8 7 8 8 8 8 9 9 8 8 8 9 9 9 8 9 10 10 10 9 9 9 9 10
1 1 2 2 1 6 7 5 7 7 6 4 5 6 6 7 6 5 4 4 4 5 5 7 8 7 7 7 8 8 8 9 9 9 9 9 9 9 9 9 9 9 9 9 9 9 9 9 10
2 2 1 1 4 6 6 6 7 7 5 3 4 5 5 5 4 4 4 4 5 5 6 7 6 6 6 7 8 8 9 9 10 9 9 9 9 8 9 9 9 9 9 8 9 9 9 9 10
2 1 1 5 11 8 6 5 5 5 5 5 4 6 6 5 4 5 5 5 6 6 6 7 6 7 7 7 7 8 8 9 9 9 9 9 8 8 9 9 9 9 9 8 9 8 9 9 9
2 0 4 8 9 7 6 5 4 5 4 5 5 6 7 5 5 6 6 6 6 6 7 8 8 7 7 7 8 7 8 9 9 9 9 9 8 8 9 9 9 9 9 9 9 9 9 9 10
1 1 5 7 8 6 5 4 4 6 7 6 6 7 6 5 5 5 5 6 6 6 6 7 8 7 7 7 7 7 8 9 10 10 10 10 9 9 10 10 10 9 9 9 9 9 9 10 10
2 3 6 8 8 6 5 4 5 6 6 5 4 6 6 6 5 5 5 6 6 6 6 6 7 7 7 7 7 8 9 9 10 11 11 11 10 9 9 10 10 9 9 9 10 9 10 10 10
1 3 7 6 6 6 5 4 4 5 5 4 2 4 6 7 6 5 5 5 6 5 6 6 6 6 7 8 9 9 9 10 10 10 10 9 9 9 8 10 10 10 10 10 10 9 9 10 9
0 4 6 5 5 6 5 5 4 3 5 4 4 5 7 9 7 6 5 5 5 5 5 5 5 6 6 7 8 7 8 8 7 9 8 5 7 8 8 11 10 10 10 9 9 9 9 8 8
2 6 7 5 4 5 5 4 4 4 5 6 6 7 8 9 7 6 5 5 5 5 5 4 5 5 5 5 6 6 6 6 6 7 6 6 7 7 8 10 9 9 8 8 8 8 6 4 5
4 6 6 5 5 5 5 4 3 4 4 4 5 8 9 8 6 5 5 4 4 4 4 4 4 5 5 4 4 5 5 5 6 6 6 5 6 6 6 6 6 6 5 6 6 5 5 5 6
6 6 5 5 4 4 4 4 3 2 3 4 5 8 9 7 5 4 4 4 4 4 4 4 4 4 5 5 4 4 4 4 5 5 5 4 4 4 5 4 5 4 4 4 4 5 6 6 6
7 5 5 4 4 3 3 3 2 3 3 4 7 8 8 6 5 4 4 4 4 4 4 4 3 4 5 4 3 3 4 4 5 4 4 5 4 4 4 4 4 5 4 4 4 5 6 6 7
5 5 4 3 3 3 3 2 2 3 5 6 7 7 6 6 5 5 4 4 4 4 4 4 3 3 3 3 3 3 4 4 4 4 4 5 4 4 3 4 4 5 4 4 5 5 5 5 6
4 4 4 3 2 2 2 2 2 3 6 6 7 6 6 5 5 5 4 4 3 3 3 3 2 2 2 3 3 3 2 3 3 4 4 4 4 4 4 3 4 4 4 5 5 6 6 5 5
3 3 3 2 1 1 2 1 3 3 6 6 6 6 6 6 5 5 4 3 3 3 3 3 2 2 3 2 2 2 3 3 3 3 3 4 4 4 4 3 4 4 4 4 4 4 5 5 5
3 3 3 3 1 1 1 1 1 2 5 5 6 6 6 6 6 5 4 4 4 3 3 4 3 3 3 2 3 3 3 3 3 3 3 3 4 4 4 4 3 4 4 4 4 4 4 5 5
2 2 1 1 2 1 1 2 2 2 4 5 5 6 6 6 6 6 5 5 4 4 3 3 4 3 3 2 3 3 3 3 3 3 3 3 3 4 4 3 3 3 3 3 3 4 4 4 4
1 1 1 0 0 1 2 3 3 2 4 5 6 6 7 7 6 7 6 6 6 5 4 4 5 4 3 3 2 2 2 2 2 3 3 3 3 3 4 3 3 2 3 3 4 4 4 3 3
3 3 2 1 0 2 2 4 3 2 4 4 5 6 7 7 7 7 7 7 7 6 6 5 5 4 3 2 1 1 2 2 2 2 3 2 3 3 3 3 3 2 2 3 4 3 2 2 1
4 4 3 2 2 3 3 2 1 1 2 3 4 5 7 8 9 9 9 8 7 7 6 5 5 5 4 3 2 2 2 2 2 2 2 2 2 2 2 2 2 2 2 2 3 3 2 2 1
4 3 4 4 4 2 3 3 1 1 1 2 3 3 5 7 9 9 9 9 8 7 6 6 6 5 4 4 3 2 2 2 2 2 2 2 2 2 2 2 1 1 1 2 2 2 2 2 1
2 1 3 4 4 4 4 4 2 1 2 2 2 3 4 6 8 9 9 9 8 7 6 6 6 5 4 4 3 3 2 1 1 2 2 2 2 2 2 2 2 1 1 2 2 2 2 2 1
3 4 3 4 4 4 3 4 2 1 3 3 1 1 3 5 7 8 8 8 8 7 6 6 6 5 5 4 4 3 3 2 2 2 2 2 2 2 2 2 2 1 1 2 2 2 3 2 1
6 6 4 5 4 2 1 3 2 2 3 4 3 1 3 5 7 8 8 9 8 8 8 7 7 6 6 5 5 4 3 3 2 2 2 2 2 2 2 2 2 1 1 1 2 2 2 2 2
7 7 4 3 2 1 2 3 0 2 3 3 3 2 3 5 6 7 8 8 8 9 8 8 7 7 6 6 5 4 3 2 2 2 2 2 1 2 2 1 1 1 1 1 1 1 1 1 2
6 6 5 4 3 4 3 2 1 1 2 3 4 3 3 4 5 6 7 8 8 9 9 8 8 7 7 6 5 4 4 3 3 3 2 2 2 2 2 2 2 1 1 1 1 1 1 1 1
3 4 4 5 3 4 3 4 2 1 2 2 3 3 2 3 5 5 6 7 7 8 8 8 8 7 7 7 6 4 4 4 3 3 3 2 2 2 2 2 2 2 2 2 1 1 0 1 1
5 6 5 5 5 4 3 2 2 2 2 2 2 2 2 3 4 5 5 6 7 7 7 8 8 7 7 7 6 6 5 5 4 3 3 3 3 3 3 2 2 2 3 2 2 1 1 1 1
5 6 7 6 5 5 5 1 4 2 2 2 2 2 2 3 3 4 5 6 6 7 7 7 7 7 7 7 7 6 5 5 5 4 4 4 3 2 2 3 3 3 2 2 2 2 1 1 0
Wind_Direction
174 186 226 238 202 94 77 69 68 67 63 62 58 56 59 45 33 59 63 46 39 56 66 74 71 72 76 76 76 83 87 92 94 97 102 101 97 95 94 90 87 85 88 89 87 87 89 88 85
173 202 238 246 127 103 82 69 69 62 81 88 68 62 68 65 53 71 69 50 47 65 69 67 71 76 78 80 81 86 87 88 90 94 99 101 98 96 94 90 87 84 84 86 86 85 86 85 85
173 249 293 43 77 80 92 77 79 84 82 73 77 58 56 63 62 67 62 70 70 74 76 76 76 85 83 85 84 88 88 86 84 87 93 100 99 98 97 92 86 81 78 81 85 88 87 85 84
232 215 110 89 87 74 81 85 93 100 85 64 83 81 77 56 58 76 86 78 77 77 81 81 78 82 80 85 83 85 90 88 84 83 89 98 100 101 98 95 91 84 78 79 84 90 92 88 85
244 158 109 99 90 86 77 72 78 75 76 74 80 91 89 77 84 92 90 80 77 75 74 83 81 79 78 83 81 80 89 90 88 83 81 89 92 94 93 92 92 87 82 80 78 82 86 85 84
181 122 112 104 101 98 87 77 82 78 88 89 87 96 92 106 107 99 89 84 81 79 78 85 97 84 78 79 80 85 89 89 87 82 80 82 84 86 88 89 90 88 86 87 81 79 82 82 84
74 88 98 108 109 101 87 75 76 81 82 75 83 100 113 121 115 109 96 87 84 80 78 77 90 101 102 90 82 83 85 86 85 83 82 82 82 83 88 89 84 84 86 87 85 78 77 81 82
51 112 111 105 109 97 99 100 82 70 78 80 76 97 117 135 133 124 109 97 88 82 77 77 79 86 96 101 88 80 81 82 84 83 82 90 97 93 95 93 83 80 85 87 88 85 84 83 82
102 112 100 100 104 105 115 114 99 94 100 93 81 81 103 131 143 137 125 110 101 91 84 83 85 86 90 90 92 92 94 91 98 98 94 100 96 95 99 82 82 79 83 89 89 91 94 94 93
74 90 88 91 99 111 114 109 119 126 106 110 113 110 126 140 148 141 127 117 109 100 92 90 89 89 92 89 94 92 88 87 83 83 84 83 85 86 91 99 89 86 88 98 92 96 110 114 96
78 90 99 101 105 113 117 114 126 118 98 103 120 132 140 147 150 141 126 113 100 99 96 91 92 90 89 91 83 84 85 86 87 85 88 88 93 101 95 99 104 98 98 92 98 102 86 82 75
97 93 100 105 117 126 118 120 122 119 96 100 118 136 146 152 149 142 132 122 118 106 98 94 92 97 90 87 86 85 87 89 86 83 82 85 88 88 88 86 85 87 84 78 82 80 84 81 83
100 100 99 107 119 125 127 131 123 129 126 124 131 143 149 148 144 138 132 126 127 122 117 104 95 91 90 84 85 90 86 84 89 80 79 83 84 82 86 89 85 80 80 88 87 88 85 82 77
101 110 110 114 120 133 141 139 155 140 145 146 150 154 152 151 151 144 144 140 140 137 123 117 114 103 104 106 100 85 87 98 89 83 79 80 81 84 85 87 85 82 82 84 93 94 90 84 78
125 122 118 112 130 142 169 153 152 144 161 163 163 161 159 162 160 157 150 149 148 139 127 116 115 110 102 97 88 79 88 95 90 85 81 83 79 83 85 81 86 87 94 97 95 96 91 87 86
153 152 124 106 101 174 234 97 98 149 181 184 182 172 173 176 176 164 160 157 153 151 137 132 134 122 105 109 117 104 95 101 100 93 81 86 93 92 90 91 88 92 96 98 97 94 94 88 83
172 147 117 116 103 175 233 285 110 170 198 201 196 190 187 181 181 171 166 171 163 163 159 145 134 124 116 118 127 114 107 103 104 105 94 91 92 98 103 97 101 105 99 97 103 101 98 95 87
148 149 138 110 101 199 246 292 294 209 213 219 208 203 198 198 185 170 170 176 173 169 173 155 139 137 129 135 131 118 112 107 103 106 112 102 101 98 101 112 118 111 104 104 107 105 98 98 97
199 227 227 26 54 245 276 299 304 248 217 224 218 211 207 204 185 167 174 177 177 176 179 165 161 148 140 144 153 142 130 116 111 105 105 121 124 115 107 116 109 112 117 126 130 123 118 113 116
222 229 226 207 176 264 298 296 292 267 233 233 226 213 212 204 192 178 182 182 181 177 181 173 165 159 153 152 154 138 124 116 101 117 126 135 136 130 128 136 132 134 135 145 142 143 135 128 156
218 241 250 260 251 237 284 289 225 187 218 222 229 226 215 207 201 188 188 184 181 182 183 176 167 164 161 162 153 141 140 154 145 137 131 122 125 139 154 144 144 151 159 156 166 169 167 159 170
222 241 246 243 245 262 287 307 336 272 236 229 227 223 215 205 203 193 188 185 187 184 183 178 167 170 166 171 184 181 185 172 150 139 138 144 137 151 164 163 169 168 175 174 186 189 199 198 177
236 185 225 234 253 269 256 271 302 48 313 284 244 230 214 200 193 190 190 186 186 179 177 178 168 169 170 180 184 205 188 169 153 156 152 158 142 154 166 173 179 189 191 206 213 205 222 219 242
164 168 175 211 239 257 263 256 302 15 337 335 329 232 199 188 181 182 180 180 181 177 175 177 174 171 170 182 190 198 191 193 188 189 170 169 151 151 156 182 193 200 205 214 217 215 220 241 262
207 219 215 210 213 232 163 246 274 14 356 342 340 353 166 170 173 174 174 180 180 181 182 180 181 179 176 183 193 198 210 216 216 210 183 187 166 158 156 183 193 209 212 216 217 215 222 221 235
213 230 241 254 237 201 194 238 86 28 12 9 22 60 130 157 169 173 178 181 182 184 185 185 186 185 183 187 192 197 195 213 205 206 195 188 180 158 152 183 181 198 205 203 202 223 218 232 231
210 221 252 269 269 261 223 214 229 81 44 42 53 66 110 153 167 173 176 179 181 183 185 188 188 188 188 191 190 193 192 193 189 191 191 181 180 164 168 177 168 162 183 191 175 179 183 209 236
252 208 213 231 244 241 226 233 225 74 28 37 53 69 100 144 163 173 176 178 179 181 183 188 192 193 191 190 192 196 197 188 193 193 188 185 177 177 185 189 175 163 169 168 167 176 124 190 154
188 202 218 228 246 258 242 177 85 30 11 12 38 70 110 143 157 166 173 178 176 176 180 189 193 194 193 193 192 194 192 193 191 193 185 193 191 186 184 194 184 178 179 171 160 187 183 192 170
225 224 223 232 232 244 261 217 104 32 16 9 31 71 105 132 150 159 167 173 177 180 184 193 196 197 196 197 196 198 193 197 198 191 192 199 199 195 192 185 187 189 189 185 174 179 188 192 176
Height
1517 1517 1517 1518 1516 1516 1523 1524 1521 1523 1525 1528 1528 1527 1528 1530 1532 1539 1540 1537 1536 1536 1535 1534 1534 1534 1534 1534 1534 1534 1533 1533 1534 1534 1534 1535 1535 1536 1536 1536 1536 1536 1536 1536 1537 1537 1537 1537 1537
1518 1517 1519 1519 1514 1521 1528 1524 1525 1526 1529 1530 1530 1530 1531 1534 1537 1539 1539 1538 1537 1537 1536 1535 1535 1534 1535 1535 1535 1535 1535 1535 1535 1535 1536 1536 1537 1537 1537 1537 1537 1537 1537 1538 1538 1538 1538 1539 1539
1518 1518 1521 1516 1518 1523 1529 1526 1527 1529 1531 1531 1532 1533 1534 1537 1539 1540 1540 1539 1538 1538 1537 1536 1536 1536 1536 1536 1536 1536 1536 1536 1536 1537 1537 1537 1538 1538 1538 1538 1538 1538 1539 1539 1539 1539 1540 1540 1540
1520 1521 1521 1519 1525 1526 1526 1527 1529 1530 1531 1532 1532 1535 1538 1540 1541 1541 1540 1540 1540 1539 1539 1537 1537 1537 1537 1537 1537 1538 1537 1537 1538 1538 1538 1538 1538 1539 1539 1539 1539 1540 1540 1540 1540 1541 1541 1541 1541
1521 1521 1520 1524 1527 1527 1528 1529 1530 1529 1531 1533 1534 1536 1540 1542 1542 1542 1542 1542 1542 1541 1540 1539 1538 1538 1538 1538 1538 1539 1539 1539 1539 1539 1539 1539 1540 1540 1540 1540 1541 1541 1541 1541 1542 1542 1542 1542 1542
1522 1520 1522 1528 1529 1529 1530 1531 1531 1531 1533 1535 1536 1537 1542 1543 1543 1543 1543 1543 1543 1542 1542 1541 1540 1539 1540 1540 1540 1540 1540 1540 1540 1540 1540 1540 1541 1541 1542 1542 1542 1542 1542 1543 1543 1543 1544 1544 1544
1523 1520 1524 1527 1531 1531 1532 1533 1533 1533 1534 1537 1538 1538 1543 1544 1545 1544 1544 1544 1544 1544 1544 1543 1542 1541 1541 1541 1541 1542 1542 1542 1542 1542 1542 1542 1542 1543 1543 1543 1543 1543 1543 1544 1544 1545 1545 1545 1545
1523 1523 1526 1528 1531 1533 1534 1535 1536 1536 1537 1539 1540 1539 1543 1545 1545 1545 1546 1546 1546 1546 1546 1545 1545 1544 1544 1544 1543 1543 1543 1543 1544 1544 1544 1544 1544 1544 1545 1545 1544 1544 1545 1545 1546 1546 1546 1546 1546
1524 1524 1528 1530 1532 1533 1535 1535 1538 1539 1539 1540 1541 1542 1544 1545 1545 1546 1547 1547 1547 1547 1547 1547 1546 1546 1546 1546 1545 1545 1545 1545 1545 1546 1546 1546 1547 1547 1547 1546 1546 1546 1546 1546 1547 1547 1547 1547 1548
1525 1526 1531 1531 1531 1533 1535 1536 1537 1538 1539 1540 1542 1544 1544 1545 1546 1547 1548 1548 1549 1549 1549 1548 1548 1548 1548 1547 1547 1547 1547 1547 1548 1548 1548 1548 1548 1548 1548 1548 1548 1548 1548 1548 1548 1548 1548 1549 1550
1527 1529 1531 1533 1534 1534 1535 1537 1538 1538 1538 1540 1542 1544 1545 1546 1547 1548 1549 1549 1550 1550 1550 1550 1550 1549 1549 1549 1549 1549 1549 1549 1549 1549 1549 1550 1550 1550 1550 1550 1550 1550 1550 1550 1549 1550 1550 1551 1551
1529 1531 1532 1534 1536 1536 1536 1537 1538 1539 1540 1542 1543 1544 1546 1547 1548 1549 1550 1550 1550 1551 1551 1551 1551 1551 1551 1551 1551 1551 1551 1551 1551 1551 1551 1551 1551 1551 1551 1551 1551 1551 1551 1551 1551 1551 1552 1552 1552
1530 1533 1535 1536 1536 1537 1537 1538 1539 1540 1542 1543 1544 1545 1546 1547 1549 1550 1550 1551 1551 1551 1552 1552 1552 1552 1552 1552 1552 1553 1553 1553 1553 1553 1553 1553 1553 1552 1552 1552 1552 1552 1552 1552 1552 1553 1553 1553 1553
1533 1534 1535 1536 1536 1537 1537 1538 1539 1540 1542 1543 1544 1545 1546 1548 1549 1550 1551 1551 1552 1552 1553 1553 1553 1553 1554 1554 1554 1554 1554 1554 1554 1554 1554 1554 1554 1554 1554 1554 1553 1553 1553 1553 1553 1553 1553 1554 1554
1534 1534 1534 1536 1536 1537 1538 1537 1538 1540 1541 1543 1544 1545 1547 1548 1549 1550 1551 1552 1552 1553 1554 1554 1554 1554 1555 1555 1555 1555 1555 1556 1556 1555 1556 1555 1555 1555 1555 1555 1555 1554 1554 1554 1554 1554 1555 1554 1555
1533 1533 1536 1536 1536 1537 1538 1539 1537 1540 1540 1541 1543 1544 1546 1548 1549 1550 1551 1552 1553 1553 1554 1554 1554 1555 1555 1555 1556 1556 1556 1556 1556 1556 1557 1557 1556 1556 1556 1556 1556 1555 1555 1555 1555 1556 1556 1556 1556
1532 1535 1536 1536 1536 1536 1536 1537 1537 1539 1539 1540 1541 1543 1545 1546 1548 1550 1551 1552 1553 1554 1554 1555 1555 1555 1556 1556 1556 1556 1557 1557 1557 1557 1557 1557 1557 1557 1557 1557 1557 1557 1557 1557 1557 1557 1557 1557 1557
1536 1534 1536 1536 1535 1535 1536 1535 1535 1537 1538 1538 1539 1541 1543 1544 1547 1548 1550 1551 1553 1553 1554 1555 1555 1556 1556 1556 1557 1557 1557 1558 1558 1558 1558 1558 1558 1558 1558 1557 1557 1558 1558 1557 1557 1557 1557 1557 1558
1532 1534 1536 1535 1534 1536 1535 1534 1533 1535 1536 1536 1537 1539 1541 1543 1546 1547 1549 1550 1552 1553 1554 1555 1556 1556 1556 1557 1557 1558 1558 1558 1558 1558 1558 1558 1559 1559 1558 1559 1558 1558 1558 1558 1558 1558 1558 1559 1559
1533 1535 1535 1535 1534 1534 1533 1532 1530 1532 1533 1534 1535 1536 1539 1541 1544 1546 1548 1549 1551 1552 1554 1555 1556 1556 1557 1557 1558 1558 1558 1558 1558 1558 1558 1559 1559 1559 1559 1559 1559 1559 1559 1559 1559 1559 1559 1559 1559
1534 1535 1535 1536 1535 1533 1533 1531 1529 1529 1532 1533 1534 1535 1537 1539 1541 1544 1546 1548 1550 1552 1553 1554 1555 1556 1556 1557 1557 1557 1558 1558 1558 1559 1559 1559 1559 1559 1559 1560 1560 1559 1559 1559 1559 1559 1560 1560 1560
1535 1532 1534 1535 1536 1535 1535 1538 1528 1526 1528 1530 1531 1532 1534 1536 1539 1542 1544 1546 1548 1551 1552 1554 1555 1556 1556 1556 1557 1558 1558 1559 1559 1559 1559 1559 1559 1559 1559 1560 1560 1560 1559 1559 1560 1560 1560 1560 1560
1532 1533 1533 1534 1534 1535 1532 1536 1528 1525 1526 1526 1528 1530 1531 1534 1536 1539 1542 1544 1547 1549 1551 1553 1554 1555 1555 1556 1556 1557 1558 1558 1559 1559 1559 1559 1559 1559 1559 1559 1559 1560 1560 1560 1559 1559 1560 1560 1560
1533 1534 1534 1533 1533 1541 1534 1536 1533 1524 1525 1524 1525 1527 1529 1532 1535 1538 1540 1543 1545 1548 1550 1551 1553 1554 1554 1555 1556 1557 1557 1558 1558 1559 1559 1559 1559 1559 1559 1559 1559 1560 1560 1559 1559 1559 1559 1559 1559
1531 1534 1540 1541 1541 1538 1532 1534 1531 1522 1524 1525 1525 1526 1528 1530 1533 1536 1538 1541 1544 1546 1548 1550 1551 1553 1554 1555 1556 1557 1557 1558 1558 1559 1559 1559 1559 1559 1559 1559 1559 1559 1559 1559 1559 1559 1559 1559 1559
1528 1528 1538 1544 1541 1535 1533 1532 1525 1523 1525 1526 1526 1526 1527 1529 1532 1534 1537 1539 1541 1544 1546 1548 1550 1552 1553 1554 1555 1556 1557 1557 1558 1558 1558 1558 1558 1559 1559 1559 1559 1559 1558 1558 1558 1558 1558 1558 1558
1527 1528 1526 1532 1535 1538 1530 1526 1521 1522 1524 1525 1525 1526 1527 1529 1531 1533 1535 1537 1539 1542 1544 1546 1549 1550 1552 1553 1554 1555 1556 1556 1557 1557 1557 1558 1558 1558 1558 1558 1558 1558 1558 1558 1558 1558 1558 1558 1558
1526 1525 1529 1533 1541 1541 1535 1530 1525 1522 1523 1523 1524 1526 1527 1529 1530 1532 1534 1536 1538 1540 1542 1545 1547 1549 1550 1551 1553 1554 1555 1555 1556 1556 1557 1557 1557 1557 1557 1558 1558 1558 1558 1557 1557 1557 1557 1557 1557
1529 1530 1528 1528 1530 1537 1538 1531 1519 1521 1523 1523 1525 1526 1527 1529 1530 1531 1533 1535 1537 1539 1541 1543 1545 1547 1548 1550 1551 1552 1553 1554 1555 1555 1556 1556 1556 1557 1557 1557 1558 1558 1558 1557 1557 1557 1557 1557 1557
1526 1526 1527 1533 1532 1531 1532 1530 1520 1522 1524 1525 1525 1527 1528 1529 1530 1531 1532 1534 1535 1537 1539 1541 1543 1544 1546 1548 1549 1551 1552 1553 1554 1554 1555 1555 1556 1556 1556 1556 1557 1557 1557 1557 1557 1557 1556 1557 1556